Regional Weather Roundup
Issued by NWS Grand Forks, ND

Home | Current Version | Previous Version | Text Only | Print | Product List | Glossary On
Versions: 1 2 3 4 5 6 7 8 9 10 11 12 13 14 15 16 17 18 19 20 21 22 23 24 25 26 27 28 29 30 31 32 33 34 35 36 37 38 39 40 41 42 43 44 45 46 47 48 49 50
204
ASUS43 KFGF 052310
RWRFGF
PRAIRIE TO PINES  WEATHER ROUNDUP
NATIONAL WEATHER SERVICE EASTERN NORTH DAKOTA/GRAND FORKS ND
600 PM CDT THU MAY 05 2016

 **SATELLITE DATA USED TO AUGMENT SKY COVER AT AUTOMATED STATIONS**
 *****  WEATHER ACROSS EASTERN NORTH DAKOTA  *****

CITY           SKY/WX    TMP DP  RH WIND       PRES   REMARKS
GRAND FORKS    MOSUNNY   92  38  15 W12       29.72F
GRAND FRKS AFB SUNNY     90  37  15 W9G17     29.73F
DEVILS LAKE    SUNNY     85  42  22 S10       29.76F
FARGO          SUNNY     90  36  14 SW16      29.76F
WAHPETON ARPT  CLEAR     86  28  12 SW16G22   29.81S
$$

 ***** WEATHER ACROSS CENTRAL AND WESTERN NORTH DAKOTA  *****

CITY           SKY/WX    TMP DP  RH WIND       PRES   REMARKS
BISMARCK       SUNNY     87  44  22 SW9       29.78F
MINOT          SUNNY     93  36  13 SW7       29.73F
JAMESTOWN      SUNNY     87  41  19 SW15G22   29.77F
MINOT AFB      MOSUNNY   89  39  17 SW13      29.72S
GARRISON         N/A     87  38  17 SW8       29.77F
WILLISTON      MOSUNNY   88  37  16 SW12      29.75F
DICKINSON      MOSUNNY   84  42  22 CALM      29.80F
HETTINGER      CLOUDY    83  44  25 CALM      29.84F
$$

 *****  OTHER AIRPORT OBSERVATIONS IN OUR AREA  *****

CITY           SKY/WX    TMP DP  RH WIND       PRES   REMARKS
WALHALLA       FAIR      91  39  16 SW10G17   29.68F
GRAFTON AIRPOR FAIR      90  41  18 SW15G23   29.72S
VALLEY CITY AR FAIR      86  41  20 W15       29.80F
CANDO          FAIR      90  36  14 SW13      29.76S
CAVALIER APRT  FAIR      91  39  16 SW12G23   29.68F
GWINNER        FAIR      90  37  15 SW17G24   29.82S
ROLLA            N/A     88  34  14 SW14G20   29.74F
 ***** THE ABOVE OBSERVATIONS ARE NON NWS ARE NOT QUALITY
       CONTROLLED AND MAY MIS-REPORT RAIN FOR SNOW...
$$

  *****  WEATHER ACROSS NORTHERN MINNESOTA  *****

CITY           SKY/WX    TMP DP  RH WIND       PRES   REMARKS
FLAG ISLAND    SUNNY     82  34  17 N8        29.66F
WARROAD        SUNNY     90  45  20 NW6G29    29.68S
ROSEAU         SUNNY     91  27   9 W10G21    29.68F
HALLOCK        SUNNY     91  25   9 W17       29.67S
THF RVR FALLS  SUNNY     90  34  13 W20       29.74F
BAUDETTE       CLOUDY    89  37  16 W13G18    29.68F
WASKISH        SUNNY     81  46  30 SW9       29.73F
CROOKSTON      NOT AVBL
STEPHEN NDAWN    N/A     91  39  16 W12         N/A
GREENBUSH NDAW   N/A     90  36  14 SW14        N/A
$$
  *****  WEATHER ACROSS CENTRAL AND WEST MINNESOTA  *****

CITY           SKY/WX    TMP DP  RH WIND       PRES   REMARKS
FOSSTON        SUNNY     90  32  12 W18       29.77F
BEMIDJI        SUNNY     87  38  17 W21G26    29.77F
PARK RAPIDS    SUNNY     85  40  20 W14G21    29.80F
ELBOW LAKE     FAIR      84  41  21 SW18      29.85F
WADENA         SUNNY     84  43  23 W10G20    29.83F
DETROIT LAKES  SUNNY     86  36  16 SW10      29.83S
MOORHEAD       SUNNY     90  32  12 SW16G22   29.78F
FERGUS FALLS   SUNNY     86  41  20 SW15      29.78F
MORRIS MN      SUNNY     84  43  23 SW12      29.85F
STAPLES        SUNNY     82  39  21 S12       29.84F
$$
  *****  WEATHER ELSEWHERE ACROSS MINNESOTA  *****

CITY           SKY/WX    TMP DP  RH WIND       PRES   REMARKS
DULUTH         SUNNY     78  38  23 W16       29.82F
INTRNTL FALLS  CLOUDY    86  45  23 W9        29.69F
ELY            SUNNY     81  36  19 W13       29.76F
CLOQUET        SUNNY     79  32  18 SW16      29.82F
WHEATON        SUNNY     88  45  22 SW13      29.85F
BRAINERD       SUNNY     82  41  23 SW15G24   29.84F
HIBBING        SUNNY     81  40  23 W12G21    29.78F
ALEXANDRIA     SUNNY     83  41  22 SW13      29.87F
SAINT CLOUD    SUNNY     80  39  23 SW9       29.88F
MINNEAPOLIS    SUNNY     78  35  21 W13       29.90F
$$

  *****  WEATHER ACROSS SOUTH DAKOTA  *****

CITY           SKY/WX    TMP DP  RH WIND       PRES   REMARKS
SIOUX FALLS    MOSUNNY   75  48  38 SW9       29.94F
BROOKINGS      SUNNY     80  44  27 S12       29.92F
WATERTOWN      SUNNY     81  42  25 SW13      29.90F
HURON          SUNNY     83  40  21 S15G23    29.87F
SISSETON         N/A     86  35  16 SW13      29.83F
ABERDEEN       SUNNY     88  35  15 SW21G26   29.83F
MITCHELL       SUNNY     83  41  22 S14       29.90F
PIERRE         SUNNY     85  50  29 S17       29.81F
MOBRIDGE       SUNNY     87  32  14 S13       29.78F
RAPID CITY     CLOUDY    81  45  28 SE9       29.88S
$$

  *****  SOME WEATHER IN NEARBY STATES *****

CITY           SKY/WX    TMP DP  RH WIND       PRES   REMARKS
GLASGOW MT     SUNNY     86  36  16 NW5       29.77F
GREAT FALLS MT CLOUDY    78  39  24 N8        29.85F
CHEYENNE WY    CLOUDY    76  28  17 VRB6      30.06F
SCOTTSBLUFF NE MOSUNNY   83  37  19 N3        29.94F
OMAHA NE       PTSUNNY   77  40  26 SE8       30.00F
DES MOINES IA  MOSUNNY   72  35  25 W6        30.02F
DAVENPORT IA   SUNNY     67  34  29 N10G16    30.00F
CHICAGO IL     MOSUNNY   59  39  47 E8        29.97S
EAU CLAIRE WI  MOSUNNY   69  35  28 S3        29.94F
LA CROSSE WI   SUNNY     70  37  29 W5        29.96F
$$

  *****  SOME NATIONAL WEATHER *****

CITY           SKY/WX    TMP DP  RH WIND       PRES   REMARKS
LA GUARDIA NY  CLOUDY    56  47  71 NE16      29.63S
RALEIGH NC     PTSUNNY   51  48  89 NW6       29.63R
ATLANTA GA     MOSUNNY   59  41  51 NW20G31   29.79R
NEW ORLEANS LA MOSUNNY   79  47  32 NW15      29.87S
OKLAHOMA CITY  MOSUNNY   81  40  23 NE3       30.02F
ALBUQUERQUE NM MOSUNNY   82  23  11 SW15G25   30.02F
SALT LAKE CITY CLOUDY    83  29  14 S17       29.79F
LOS ANGELES CA PTSUNNY   67  48  50 SW13      29.89F
BOISE ID       CLOUDY    76  45  33 NW8       29.71F
SEATTLE WA     MOSUNNY   67  48  50 N10G18    30.01F
$$

*** WEATHER ACROSS MANITOBA...SASKATCHEWAN AND ONTARIO ***
                ***ONTARIO***

CITY           SKY/WX    TMP DP  RH WIND       PRES   REMARKS
GERALDTON      PTSUNNY   63  32  31 S14G22    29.76F
THUNDER BAY    PTSUNNY   52  36  54 NE13      29.80R
SIOUX LOOKOUT  PTSUNNY   81  43  26 SW8       29.68F
TORONTO        PTSUNNY   61  46  59 N5        29.79S
BIG TROUT LK   MOSUNNY   46  27  46 E10G18    29.81R
PICKLE LAKE    MOSUNNY   73  41  31 W9        29.69S
DRYDEN         SUNNY     82  41  23 W13       29.68S
KENORA         MOSUNNY   88  37  16 NW10      29.68S
$$
                *** MANITOBA***

CITY           SKY/WX    TMP DP  RH WIND       PRES   REMARKS
BRANDON        PTSUNNY   91  37  15 SW16G28   29.67F
DAUPHIN        SUNNY     90  32  12 NW15G22   29.61R
ISLAND LAKE    CLOUDY    59  37  44 NE10G22   29.68R
PILOT MOUND      N/A     90  32  12 W9G17       N/A
THE PAS        CLOUDY    70  45  40 N9        29.65R
THOMPSON       CLOUDY    54  25  32 E8        29.76R
WINNIPEG       PTSUNNY   93  34  12 W16       29.64S
LYNN LAKE      PTSUNNY   52  34  50 N5        29.78S
CHURCHILL      CLOUDY    25  19  80 NE9       30.02S WCI  15
GILLAM         PTSUNNY   32  18  55 NE10G21   29.89S WCI  24
$$
                ***SASKATCHEWAN***

CITY           SKY/WX    TMP DP  RH WIND       PRES   REMARKS
ESTEVAN        NOT AVBL
KINDERSLEY     PTSUNNY   68  39  34 NW24G35   29.88R SMOKE
LLOYDMINSTER   CLOUDY    52  36  54 NW12G24   29.99R
PRINCE ALBERT  CLOUDY    70  41  35 N25G33    29.76R
REGINA         PTSUNNY   88  37  16 W22G29    29.70S
YORKTON        PTSUNNY   88  36  15 W16G23    29.63F
N. BATTLEFORD  SUNNY     64  39  39 N24G33    29.88R HAZE
LA RONGE       LGT RAIN  52  43  71 NW10G23   29.86R
SASKATOON      PTSUNNY   73  43  33 N26G37    29.77R
SWIFT CURRENT  SUNNY     81  37  21 NW23G29   29.80F
$$
NOTE: THESE ARE AUTOMATED STATIONS WITH LIMITED QUALITY CONTROL
      "FAIR" INDICATES FEW OR NO CLOUDS BELOW 12,000 FEET WITH NO
      SIGNIFICANT WEATHER AND/OR OBSTRUCTIONS TO VISIBILITY.
      SKY/WX - SKY CONDITION AND SIGNIFICANT WEATHER.
      TMP - AIR TEMPERATURE.    DP   - DEWPOINT TEMPERATURE.
      RH  - RELATIVE HUMIDITY.  PRES - PRESSURE.
      HX  - HEAT INDEX.         WCI  - WIND CHILL INDEX.
$




USA.gov is the U.S. government's official web portal to all federal, state and local government web resources and services.